NOAA 16 DEB, 41366

Orbit data source: Space-Track

NOAA 16 DEB, 41366 is space debris in SSO originally from a launch on Thu, 21 Sep 2000 UTC launched from the Air Force Western Test Range (AFWTR). Debris objects in space refer to the collection of defunct objects orbiting the Earth. Examples of debris include non-operational satellites, rocket bodies, and fragments generated from explosions, collisions, or faulty payload assembly.

Loading next visibility...
Identifier
41366, 2000-055JK
Orbit
SSO
Country
Flag of USUS
Related business
Manufacturer
Unknown
Mission
Spacecraft
Bus & Motor
Unknown
Mass
Unknown
Launch date (UTC)
2000-09-21 (25 years ago)
Launch vehicle
Unknown
Launch site
Air Force Western Test Range (AFWTR)
Object type
Payload
Rocket body
Debris
Shape & HBR
Unknown shape, 0.1 m
Radar Cross Section
Small (<0.1 m²)

Expand to show TLE details & history
Last TLE update: 4 days ago

TLE from 4 days ago
0 NOAA 16 DEB
1 41366U 00055JK  25295.56869597  .00016959  00000-0  59197-2 0  9991
2 41366  98.9397  38.6154 0031263 220.4615 139.4244 14.35036792499738
Epoch: 2025-10-22T13:38Z
TLE epoch observation values (Epoch: 2025-10-22T13:38:55.331Z)
Latitude
-0.00005°
Longitude
162.64443°
Altitude
794.89 km
Speed
7.447 km/s
True Right ascension
02h 34m 27s
True Declination
0° 00' 00"
Sunlit
Object was in full shadow at epoch
Visualization orbit readout
Latitude
Unknown
Longitude
Unknown
Altitude
Unknown
Speed
Unknown
Apparent Right ascension
Unknown
Apparent Declination
Unknown
Sunlit
N/A
Visualization observer readout
Local Sidereal Time
01:37:46
Azimuth
Unknown
Elevation
Unknown
Doppler factor
Unknown
Orbital elements
Apogee altitude
794.448 km
Perigee altitude
749.74 km
Semi-major axis
7,150.231 km
Eccentricity
0.00313
Inclination
98.9397°
RAAN
38.6154°
Arg. of periapsis
220.4615°
True anomaly
139.65673°
Mean anomaly
139.4244°
Eccentric anomaly
139.54063°
Mean motion
3.58974 °/min
Orbital period
100.29 mins
BSTAR
0.0059197
Loading maneuver chart data...
Computing Atmospheric mass density...

Documentation

Showing up to 5 results
|